This demonstration page uses our WeatherBlox Daily Observations layout. Learn more.

Hourly Observations for February 23, 2017

Temp ( °F °C ) Dew Point ( °F °C ) Humidity (%) Winds ( mph kmh ) Pressure ( in mb ) Visibility ( mi km ) Precip ( " mm )
12:54 am 00:54 Clear 45 7.2 38 3.3 77 77 NNE 15 24 29.77 1008 10 16.0934 0 0
1:54 am 01:54 Clear 44 6.7 37 2.8 76 76 NNE 13 20 29.78 1009 10 16.0934 0 0
2:54 am 02:54 Clear 42 5.6 37 2.8 82 82 NNE 9 15 29.78 1009 10 16.0934 0 0
3:54 am 03:54 Clear 41 5 37 2.8 86 86 NNE 12 19 29.78 1008 10 16.0934 0 0
4:27 am 04:27 Mostly Cloudy 39 4 37 3 93 93 NNE 17 28 29.83 1010 10 16.0934 0 0
4:54 am 04:54 Cloudy 40 4.4 37 2.8 89 89 NNE 20 31 29.78 1008 10 16.0934 0 0
5:38 am 05:38 Cloudy 39 4 36 2 87 87 NNE 18 30 29.83 1010 10 16.0934 0 0
5:54 am 05:54 Cloudy 40 4.4 35 1.7 83 83 NNE 17 28 29.8 1009 10 16.0934 0 0
6:28 am 06:28 Cloudy 39 4 36 2 87 87 NE 18 30 29.83 1010 10 16.0934 0 0
6:50 am 06:50 Cloudy 39 4 36 2 87 87 NNE 17 28 29.83 1010 10 16.0934 0 0
6:54 am 06:54 Cloudy 39 3.9 35 1.7 86 86 NNE 15 24 29.8 1009 10 16.0934 0 0
7:13 am 07:13 Cloudy 38 3.3 35 1.7 89 89 NE 14 22 29.83 1010 10 16.0934 0 0
7:54 am 07:54 Cloudy 37 2.8 34 1.1 89 89 NE 16 26 29.79 1009 10 16.0934 0 0
8:54 am 08:54 Cloudy 37 2.8 34 1.1 89 89 NE 16 26 29.77 1008 10 16.0934 0 0
9:54 am 09:54 Cloudy 37 2.8 34 1.1 89 89 NE 21 33 29.73 1007 10 16.0934 0 0
10:44 am 10:44 Cloudy 39 4 34 1 81 81 NE 23 37 29.74 1007 10 16.0934 0 0
10:54 am 10:54 Cloudy 40 4.4 33 0.6 77 77 NE 22 35 29.71 1006 10 16.0934 0 0
11:54 am 11:54 Cloudy 41 5 33 0.6 73 73 ENE 17 28 29.68 1005 8 12.87472 0 0
12:44 pm 12:44 Cloudy 43 6 34 1 71 71 NE 17 28 29.68 1005 10 16.0934 0 0
12:54 pm 12:54 Cloudy 42 5.6 34 1.1 73 73 ENE 16 26 29.66 1004 10 16.0934 0 0
1:54 pm 13:54 Cloudy 42 5.6 34 1.1 73 73 NE 21 33 29.62 1003 10 16.0934 0 0
2:54 pm 14:54 Cloudy 41 5 34 1.1 76 76 NE 22 35 29.6 1002 10 16.0934 0 0
3:12 pm 15:12 Cloudy 41 5 34 1 76 76 NE 23 37 29.62 1003 10 16.0934 0 0
3:54 pm 15:54 Cloudy with Light Rain 38 3.3 36 2.2 93 93 NE 18 30 29.59 1002 2 3.21868 0 0.0254
4:14 pm 16:14 Cloudy with Nearby Thunderstorms 37 3 36 2 93 93 NNE 17 28 29.62 1003 2.5 4.02335 0 0
4:32 pm 16:32 Cloudy with Light Rain 37 3 36 2 93 93 NE 22 35 29.62 1003 2.5 4.02335 0 0
4:39 pm 16:39 Cloudy with Nearby Thunderstorms 38 3.3 36 2.2 93 93 NNE 16 26 29.62 1003 4 6.43736 0.06 1.524
4:41 pm 16:41 Cloudy with Thunderstorms 38 3.3 36 2.2 93 93 NNE 16 26 29.62 1003 4 6.43736 0.06 1.524
4:54 pm 16:54 Windy with Storms Likely 38 3.3 36 2.2 93 93 NE 20 31 29.58 1002 4 6.43736 0.06 1.524
5:06 pm 17:06 Cloudy with Light Rain 37 3 36 2 93 93 NE 20 31 29.62 1003 3 4.82802 0 0
5:17 pm 17:17 Cloudy with Light Rain 38 3.3 36 2.2 93 93 NNE 13 20 29.62 1003 2 3.21868 0 0.0254
5:54 pm 17:54 Cloudy with Light Rain 38 3.3 36 2.2 93 93 NNE 16 26 29.61 1003 3 4.82802 0.01 0.254
6:27 pm 18:27 Windy with Snow Likely 37 3 36 2 93 93 NNE 21 33 29.65 1004 2.5 4.02335 0 0
6:37 pm 18:37 Cloudy with Light Rain 37 3 36 2 93 93 NNE 17 28 29.65 1004 3 4.82802 0 0
6:54 pm 18:54 Cloudy with Light Rain 37 2.8 36 2.2 96 96 N 17 28 29.63 1004 4 6.43736 0.01 0.254
7:54 pm 19:54 Cloudy with Light Rain 36 2.2 35 1.7 97 97 NNE 22 35 29.61 1003 5 8.0467 0.07 1.778
8:03 pm 20:03 Windy with Storms Likely 36 2 34 1 93 93 N 22 35 29.62 1003 6 9.65604 0 0
8:45 pm 20:45 Cloudy with Nearby Thunderstorms 34 1.1 32 0 92 92 NNW 16 26 29.68 1005 5 8.0467 0.17 4.318
8:54 pm 20:54 Cloudy with Nearby Thunderstorms 33 0.6 32 0 96 96 N 17 28 29.66 1004 4 6.43736 0.18 4.572
8:59 pm 20:59 Cloudy with Nearby Thunderstorms 33 0.6 32 0 96 96 N 17 28 29.68 1005 2.5 4.02335 0 0.0254
9:07 pm 21:07 Cloudy with Nearby Thunderstorms 33 0.6 32 0 96 96 N 16 26 29.65 1004 1.5 2.41401 0.02 0.508
9:22 pm 21:22 Cloudy with Light Snow 34 1 32 0 93 93 N 15 24 29.68 1005 1.25 2.011675 0 0
9:43 pm 21:43 Cloudy with Light Snow 33 0.6 32 0 96 96 N 18 30 29.68 1005 2 3.21868 0.06 1.524
9:54 pm 21:54 Windy with Snow Likely 33 0.6 32 0 96 96 N 21 33 29.66 1005 3 4.82802 0.06 1.524
10:35 pm 22:35 Windy with Snow Likely 33 0.6 31 -0.6 92 92 NNE 21 33 29.65 1004 2.5 4.02335 0.03 0.762
10:44 pm 22:44 Windy with Snow Likely 34 1 30 -1 87 87 NE 25 41 29.62 1003 3 4.82802 0 0
10:54 pm 22:54 Windy with Snow Likely 33 0.6 31 -0.6 92 92 NNE 23 37 29.6 1002 4 6.43736 0.05 1.27
11:09 pm 23:09 Cloudy with Light Wintry Mix 33 0.6 31 -0.6 92 92 N 22 35 29.62 1003 8 12.87472 0 0.0254
11:54 pm 23:54 Cloudy 33 0.6 31 -0.6 92 92 N 18 30 29.65 1004 10 16.0934 0 0.0254

Powered by AerisWeather